EW2974 Weather Reports


time (UTC)temp
F
wind
direction
speed
knots
gust
knots
rain 1hr
in
rain 24hr
in
rain mn
in
humidity
%
barometer
mb
20260504202405 74 237 2.6 13.9 0.00 0.01 0.01 45 1003.0
20260504201905 74 242 2.6 14.8 0.00 0.01 0.01 42 1003.1
20260504201404 74 214 1.7 10.4 0.00 0.01 0.01 43 1003.1
20260504200405 74 224 4.3 14.8 0.00 0.01 0.01 44 1003.2
20260504195905 74 267 1.7 10.4 0.00 0.01 0.01 46 1003.3
20260504194905 74 188 3.5 13.9 0.00 0.01 0.01 44 1003.3
20260504194405 74 268 5.2 15.6 0.00 0.01 0.01 43 1003.6
20260504193405 74 213 0.0 7.8 0.00 0.01 0.01 46 1003.7
20260504192904 74 275 5.2 12.2 0.00 0.01 0.01 45 1003.8
20260504192404 73 231 4.3 10.4 0.00 0.01 0.01 47 1003.9
20260504191404 73 213 6.1 19.1 0.00 0.01 0.01 46 1004.0
20260504190905 74 242 0.9 12.2 0.00 0.01 0.01 46 1004.0
20260504185905 74 215 3.5 21.7 0.00 0.01 0.01 44 1004.1
20260504185405 75 176 0.9 12.2 0.00 0.01 0.01 46 1004.0
20260504184904 74 221 1.7 13.9 0.00 0.01 0.01 45 1004.1
20260504184405 74 190 2.6 18.2 0.00 0.01 0.01 44 1004.2
20260504183904 74 216 4.3 12.2 0.00 0.01 0.01 46 1004.4
20260504183404 74 237 0.9 12.2 0.00 0.01 0.01 46 1004.4
20260504182904 74 192 6.1 12.2 0.00 0.01 0.01 44 1004.4
20260504182404 73 225 3.5 15.6 0.00 0.01 0.01 43 1004.5
20260504181904 73 187 4.3 14.8 0.00 0.01 0.01 45 1004.7
20260504181405 73 223 5.2 13.9 0.00 0.01 0.01 44 1004.7
20260504180904 73 263 5.2 10.4 0.00 0.01 0.01 45 1004.7
20260504180405 73 223 3.5 19.1 0.00 0.01 0.01 43 1004.8
20260504175904 73 267 2.6 19.1 0.00 0.01 0.01 46 1004.8
20260504174904 73 242 2.6 11.3 0.00 0.01 0.01 46 1004.9
20260504173904 73 250 1.7 14.8 0.00 0.01 0.01 46 1005.0
20260504173404 72 169 5.2 13.9 0.00 0.01 0.01 49 1005.0
20260504172904 72 187 2.6 10.4 0.00 0.01 0.01 48 1005.1
20260504172405 72 240 2.6 14.8 0.00 0.01 0.01 46 1005.1
20260504171904 72 140 4.3 7.8 0.00 0.01 0.01 48 1005.0
20260504171405 72 174 10.4 18.2 0.00 0.01 0.01 46 1005.1
20260504170904 72 187 5.2 12.2 0.00 0.01 0.01 44 1005.2
20260504170404 72 230 0.9 7.8 0.00 0.01 0.01 47 1005.1
20260504160405 68 252 5.2 15.6 0.00 0.01 0.01 50 1006.0
20260504150905 65 245 4.3 12.2 0.01 0.01 0.01 54 1006.6
20260504150404 64 166 3.5 10.4 0.01 0.01 0.01 53 1006.9
20260504140905 60 168 0.9 10.4 0.00 0.00 0.00 54 1007.3
20260504140404 60 219 1.7 7.8 0.00 0.00 0.00 55 1007.2
20260504130405 56 219 5.2 11.3 0.00 0.00 0.00 58 1007.9
20260504110404 49 207 0.0 4.3 0.00 0.00 0.00 66 1007.7
20260504100404 48 220 0.0 0.0 0.00 0.00 0.00 68 1007.6
20260504081905 49 249 0.9 4.3 0.00 0.00 0.00 68 1008.3
20260504080404 49 240 0.9 7.0 0.00 0.00 0.00 68 1008.4
20260504070405 49 244 0.9 2.6 0.00 0.00 0.00 65 1009.2
20260504050404 50 254 0.0 0.0 0.00 0.00 0.00 64 1010.4
20260504045404 50 257 0.0 0.0 0.00 0.00 0.00 63 1010.5
20260504044904 50 257 0.0 0.0 0.00 0.00 0.00 64 1010.5
20260504044405 50 257 0.0 0.0 0.00 0.00 0.00 65 1010.4
20260504043905 50 257 0.0 0.0 0.00 0.00 0.00 64 1010.4
20260504042904 51 257 0.0 0.0 0.00 0.00 0.00 63 1010.5
20260504042404 51 257 0.0 0.0 0.00 0.00 0.00 63 1010.4
20260504041904 51 257 0.0 0.0 0.00 0.00 0.00 61 1010.4
20260504041404 51 257 0.0 0.0 0.00 0.00 0.00 61 1010.5
20260504040404 51 257 0.0 0.0 0.00 0.00 0.00 61 1010.7
20260504035904 51 257 0.0 0.0 0.00 0.00 0.00 61 1010.8
20260504035405 51 257 0.0 0.0 0.00 0.00 0.00 61 1011.0
20260504034404 50 257 0.0 0.9 0.00 0.00 0.00 60 1011.1
20260504033904 50 258 0.0 0.0 0.00 0.00 0.00 61 1011.1
20260504033404 50 257 0.0 0.0 0.00 0.00 0.00 60 1011.1
20260504032904 49 258 0.0 0.0 0.00 0.00 0.00 61 1011.2
20260504031904 49 257 0.0 0.0 0.00 0.00 0.00 59 1011.5
20260504031405 49 257 0.0 0.0 0.00 0.00 0.00 59 1011.6
20260504030904 49 257 0.0 0.0 0.00 0.00 0.00 60 1011.6
20260504025904 48 246 0.9 4.3 0.00 0.00 0.00 61 1011.6
20260504025406 47 207 0.9 5.2 0.00 0.00 0.00 66 1011.7
20260504024904 47 215 0.0 0.0 0.00 0.00 0.00 67 1011.6
20260504024404 47 215 0.0 0.0 0.00 0.00 0.00 70 1011.4
20260504023904 47 215 0.0 0.0 0.00 0.00 0.00 70 1011.3
20260504023405 48 215 0.0 0.0 0.00 0.00 0.00 68 1011.3
20260504022905 48 215 0.0 0.0 0.00 0.00 0.00 67 1011.3
20260504021904 49 215 0.0 0.0 0.00 0.00 0.00 69 1011.2
20260504021404 49 215 0.0 0.0 0.00 0.00 0.00 67 1011.2
20260504020904 50 215 0.0 0.0 0.00 0.00 0.00 66 1011.3
20260504020404 50 215 0.0 0.0 0.00 0.00 0.00 64 1011.4
20260504015904 51 215 0.0 0.0 0.00 0.00 0.00 64 1011.3
20260504014904 51 215 0.0 0.0 0.00 0.00 0.00 60 1011.3
20260504014404 52 215 0.0 0.0 0.00 0.00 0.00 52 1011.3
20260504013904 52 215 0.0 0.0 0.00 0.00 0.00 52 1011.2
20260504012904 52 215 0.0 0.0 0.00 0.00 0.00 51 1011.1
20260504012404 53 215 0.0 0.0 0.00 0.00 0.00 51 1011.1
20260504011905 53 215 0.0 0.0 0.00 0.00 0.00 51 1011.1
20260504011404 53 215 0.0 2.6 0.00 0.00 0.00 50 1011.1
20260504010904 54 213 0.0 0.0 0.00 0.00 0.00 49 1011.1
20260504005904 54 212 0.0 0.0 0.00 0.00 0.00 48 1011.2
20260504005405 55 212 0.0 0.0 0.00 0.00 0.00 48 1011.2
20260504004904 55 207 1.7 7.8 0.00 0.00 0.00 47 1011.2
20260504003404 56 211 0.0 0.0 0.00 0.00 0.00 47 1011.1
20260504002904 56 210 0.9 4.3 0.00 0.00 0.00 46 1011.1
20260504001905 56 214 0.0 4.3 0.00 0.00 0.00 46 1011.2
20260504001404 57 246 0.9 7.0 0.00 0.00 0.00 45 1011.1
20260504000905 57 278 2.6 5.2 0.00 0.00 0.00 44 1011.1
20260504000404 57 259 1.7 5.2 0.00 0.00 0.00 44 1011.3
20260503235904 57 214 2.6 12.2 0.00 0.00 0.00 44 1011.3
20260503235404 57 230 1.7 7.8 0.00 0.00 0.00 43 1011.3
20260503234904 57 239 0.9 5.2 0.00 0.00 0.00 44 1011.3
20260503234404 57 245 1.7 5.2 0.00 0.00 0.00 43 1011.3
20260503233905 57 253 0.0 4.3 0.00 0.00 0.00 44 1011.4
20260503233404 57 271 1.7 5.2 0.00 0.00 0.00 43 1011.4
20260503232905 58 265 0.0 0.0 0.00 0.00 0.00 44 1011.3
20260503231905 58 254 0.9 4.3 0.00 0.00 0.00 43 1011.3
20260503231404 58 251 1.7 7.0 0.00 0.00 0.00 43 1011.3
20260503230905 58 233 0.0 2.6 0.00 0.00 0.00 44 1011.3
20260503230404 58 260 0.0 0.0 0.00 0.00 0.00 45 1011.6
20260503225904 58 262 0.9 4.3 0.00 0.00 0.00 43 1011.6
20260503225404 58 289 1.7 5.2 0.00 0.00 0.00 43 1011.7
20260503224904 58 262 0.9 5.2 0.00 0.00 0.00 43 1011.6
20260503224405 58 273 0.9 13.9 0.00 0.00 0.00 43 1011.7
20260503223904 59 267 2.6 10.4 0.00 0.00 0.00 43 1011.7
20260503223404 59 258 5.2 15.6 0.00 0.00 0.00 41 1011.7
20260503222904 59 235 6.1 13.9 0.00 0.00 0.00 41 1011.7
20260503222404 59 265 6.1 13.9 0.00 0.00 0.00 42 1011.7
20260503221904 59 269 2.6 12.2 0.00 0.00 0.00 43 1011.7
20260503221404 59 268 1.7 7.8 0.00 0.00 0.00 42 1011.7
20260503220904 59 268 1.7 10.4 0.00 0.00 0.00 42 1011.7
20260503220404 59 227 5.2 14.8 0.00 0.00 0.00 42 1011.8
20260503215904 59 227 5.2 11.3 0.00 0.00 0.00 42 1011.7
20260503215404 59 281 0.9 14.8 0.00 0.00 0.00 41 1011.8
20260503214904 59 252 5.2 13.9 0.00 0.00 0.00 41 1011.8
20260503214404 59 261 1.7 5.2 0.00 0.00 0.00 42 1011.8
20260503213905 59 267 3.5 12.2 0.00 0.00 0.00 42 1011.9
20260503213404 60 266 1.7 7.8 0.00 0.00 0.00 42 1011.7
20260503212905 60 220 1.7 12.2 0.00 0.00 0.00 41 1011.6
20260503212404 60 209 1.7 10.4 0.00 0.00 0.00 44 1011.7
20260503211904 60 253 2.6 12.2 0.00 0.00 0.00 39 1011.7
20260503211404 60 245 5.2 12.2 0.00 0.00 0.00 40 1011.7
20260503210404 60 272 2.6 7.8 0.00 0.00 0.00 39 1011.5
20260503205904 60 263 0.9 18.2 0.00 0.00 0.00 41 1011.5
20260503205404 61 295 2.6 18.2 0.00 0.00 0.00 39 1011.6
20260503204904 61 203 6.1 18.2 0.00 0.00 0.00 39 1011.6
20260503204404 60 254 1.7 15.6 0.00 0.00 0.00 39 1011.8
20260503203904 60 266 5.2 15.6 0.00 0.00 0.00 40 1011.7
20260503202904 60 236 2.6 14.8 0.00 0.00 0.00 39 1011.9